TimeMDT,TemperatureF,Dew PointF,Humidity,Sea Level PressureIn,VisibilityMPH,Wind Direction,Wind SpeedMPH,Gust SpeedMPH,PrecipitationIn,Events,Conditions,WindDirDegrees,DateUTC
12:53 AM,30.0,7.0,38,30.14,10.0,East,10.4,-,N/A,,Clear,90,2013-03-26 06:53:00
1:53 AM,34.0,6.1,31,30.12,10.0,ESE,10.4,-,N/A,,Overcast,110,2013-03-26 07:53:00
2:53 AM,30.0,7.0,38,30.12,10.0,ESE,11.5,-,N/A,,Clear,110,2013-03-26 08:53:00
3:53 AM,30.9,5.0,33,30.11,10.0,Calm,Calm,-,N/A,,Clear,0,2013-03-26 09:53:00
4:53 AM,30.0,7.0,38,30.09,10.0,ESE,8.1,-,N/A,,Clear,110,2013-03-26 10:53:00
5:53 AM,30.0,7.0,38,30.09,10.0,ESE,6.9,-,N/A,,Scattered Clouds,110,2013-03-26 11:53:00
6:53 AM,30.0,8.1,40,30.09,10.0,East,11.5,-,N/A,,Clear,90,2013-03-26 12:53:00
7:53 AM,32.0,8.1,37,30.12,10.0,ESE,5.8,-,N/A,,Partly Cloudy,110,2013-03-26 13:53:00
8:53 AM,37.0,10.9,34,30.10,10.0,East,8.1,-,N/A,,Mostly Cloudy,100,2013-03-26 14:53:00
9:53 AM,42.1,9.0,26,30.07,10.0,ESE,11.5,-,N/A,,Clear,110,2013-03-26 15:53:00
10:53 AM,45.0,10.0,24,30.04,10.0,ESE,11.5,-,N/A,,Clear,120,2013-03-26 16:53:00
11:53 AM,46.9,10.9,23,30.01,10.0,SSE,10.4,-,N/A,,Clear,150,2013-03-26 17:53:00
12:53 PM,52.0,12.0,20,29.97,10.0,WSW,3.5,-,N/A,,Clear,240,2013-03-26 18:53:00
1:53 PM,55.0,14.0,20,29.91,10.0,Calm,Calm,-,N/A,,Clear,0,2013-03-26 19:53:00
2:53 PM,57.9,14.0,18,29.88,10.0,NW,6.9,-,N/A,,Clear,320,2013-03-26 20:53:00
3:53 PM,59.0,15.1,18,29.85,10.0,West,9.2,-,N/A,,Clear,280,2013-03-26 21:53:00
4:53 PM,59.0,14.0,17,29.83,10.0,NW,13.8,-,N/A,,Clear,310,2013-03-26 22:53:00
5:53 PM,61.0,15.1,17,29.81,10.0,NNW,11.5,-,N/A,,Clear,330,2013-03-26 23:53:00
6:53 PM,57.9,14.0,18,29.83,10.0,NW,11.5,-,N/A,,Clear,320,2013-03-27 00:53:00
7:53 PM,54.0,14.0,21,29.84,10.0,North,10.4,-,N/A,,Partly Cloudy,350,2013-03-27 01:53:00
8:53 PM,48.0,14.0,26,29.85,10.0,NE,5.8,-,N/A,,Scattered Clouds,50,2013-03-27 02:53:00
9:53 PM,44.1,14.0,30,29.87,10.0,Calm,Calm,-,N/A,,Scattered Clouds,0,2013-03-27 03:53:00
10:53 PM,46.0,15.1,29,29.86,10.0,East,5.8,-,N/A,,Partly Cloudy,80,2013-03-27 04:53:00
11:53 PM,46.0,16.0,30,29.85,10.0,East,4.6,-,N/A,,Partly Cloudy,90,2013-03-27 05:53:00